Tracking 35275 objects as of 9-Sep-2026
HD Live streaming from Space Station
objects crossing your sky now

COSMOS 1813 DEB


COSMOS 1813 DEB is no longer on orbit


NORAD ID: 17515
Int'l Code: 1987-004BD
Launch date: January 15, 1987
Source: Commonwealth of Independent States (former USSR) (CIS)
Launch site: PLESETSK MISSILE AND SPACE COMPLEX (PKMTR)
Decay date: 1987-05-17

Note: This is SATELLITE DEBRIS
Your satellite tracking list
Your tracking list is empty




NASA's NSSDC Master Catalog

Two Line Element Set (TLE):
1 17515U 87004 BD 87136.87089663  .09447775 +90469-5 +23314-2 0  9991
2 17515 072.8109 353.3662 0016688 251.2479 108.7175 16.28609657016528
Source of the keplerian elements: AFSPC